Location: Makanda
(37.6176°N, 89.2090°W)
Time: 09:16:24
(UTC+00:00)

YAOGAN 6 - Pass Details

Date: 23 September 2019
Orbit: 466 x 505 km, 97.0° (Epoch: 19 October)

Event Time Altitude Azimuth Distance (km) Brightness Sun altitude
Rises 00:22:15 0° 168° (SSE) 2,566 6.1 -6.4°
Reaches altitude 10° 00:24:18 10° 169° (SSE) 1,694 5.1 -6.8°
Maximum altitude 00:27:57 88° 255° (WSW) 507 2.7 -7.5°
Drops below altitude 10° 00:31:41 10° 348° (NNW) 1,721 5.6 -8.3°
Sets 00:33:47 0° 349° (N) 2,613 6.5 -8.7°
